Location: Luz Observatory
(34.5000°N, 117.2833°W)
Time: 14:16:24
(UTC-08:00)

Daily predictions for brighter satellites

Satellite Brightness Start Highest point End
(mag) Time Altitude Azimuth Time Altitude Azimuth Time Altitude Azimuth
Cosmos 2297 3.7 17:00:15 10° SSW 17:05:53 83° ESE 17:11:33 10° NNE
SJ-12 4.0 17:03:09 10° SSE 17:07:09 57° ENE 17:11:12 10° N
Abrixas 3.6 17:07:09 10° NNW 17:09:43 26° NNE 17:12:16 10° E
NOSS 2-1 (D) 3.3 17:07:37 10° SSW 17:11:25 85° WNW 17:15:30 10° NNE
COSMO-SKYMED 1 3.7 17:07:52 10° NE 17:11:30 25° E 17:15:05 10° SSE
Cosmos 921 Rocket 3.0 17:07:19 10° S 17:11:30 65° ESE 17:15:48 10° NNE
Cosmos 2218 Rocket 4.4 17:05:52 10° N 17:12:04 71° W 17:18:11 10° S
NOSS 2-1 (C) 3.3 17:08:16 10° SSW 17:12:06 87° WNW 17:16:13 10° NNE
Cosmos 1025 Rocket 4.1 17:10:02 10° SE 17:13:37 25° E 17:17:14 10° NE
Cosmos 2278 Rocket 3.6 17:09:03 10° SW 17:14:14 37° WNW 17:19:29 10° N
Cosmos 1666 4.4 17:12:47 10° NE 17:14:57 14° ENE 17:17:06 10° ESE
Okean 1 3.9 17:10:59 10° SSW 17:14:58 61° W 17:19:01 10° N
Genesis I 3.4 17:12:56 10° NNW 17:16:52 77° WSW 17:20:44 10° SSE
Cosmos 1346 Rocket 2.9 17:14:09 10° S 17:18:02 79° W 17:21:55 10° N
NOSS 7 (D) 4.5 17:18:51 10° SSW 17:22:32 66° ESE 17:25:51 10° NE
IDEFIX/ARIANE 42P 2.5 17:17:45 10° SSE 17:22:56 79° ENE 17:28:08 10° N
ASTRO F (AKARI) 4.2 17:23:48 10° NNE 17:26:57 64° ESE 17:30:08 10° S
Thor Agena Rocket 3.9 17:22:25 10° N 17:27:38 71° WNW 17:32:53 10° SSW
NOSS 2-1 (E) 3.9 17:27:03 10° SW 17:30:50 57° WNW 17:34:58 10° NNE
YAOGAN 1 2.6 17:27:07 10° SSE 17:31:26 89° WNW 17:35:46 10° NNW
Cosmos 1821 Rocket 4.3 17:27:35 10° N 17:33:19 41° E 17:39:02 10° SSE
Cosmos 1833 Rocket 2.8 17:28:22 10° NNW 17:33:54 55° ENE 17:39:23 10° SE
Cosmos 1500 3.7 17:32:43 10° NNW 17:36:32 62° W 17:40:20 10° S
Cosmos 1743 2.7 17:35:36 10° N 17:39:25 59° E 17:43:12 10° SSE
Timation 2 Rocket 4.2 17:33:08 10° NNW 17:40:03 83° ENE 17:46:55 10° SSE
CZ-2C R/B 3.1 17:38:17 10° S 17:43:14 62° W 17:48:20 10° NNW
Cosmos 2082 Rocket 2.1 17:37:49 10° NNW 17:43:32 80° ENE 17:49:12 10° SSE
Meteor 1-28 Rocket 4.0 17:41:28 17° NE 17:43:51 31° E 17:47:13 10° SSE
COSMOS 2441 4.3 17:39:26 10° SSE 17:44:16 70° ENE 17:49:09 10° N
Meteor 2-21 Rocket 4.4 17:39:12 10° N 17:45:24 82° E 17:51:31 10° S
Meteor 2-16 Rocket 4.4 17:39:30 10° N 17:45:34 66° E 17:51:36 10° SSE
GRACE-2 4.0 17:46:05 10° S 17:48:52 74° W 17:51:38 10° N
GRACE-1 4.1 17:46:31 10° S 17:49:17 70° W 17:52:03 10° N
USA 234 4.0 17:43:56 10° NNE 17:50:08 48° NW 17:56:20 10° WSW
Cosmos 1484 Rocket 2.5 17:50:18 10° SSE 17:54:00 70° ENE 17:57:43 10° N
Delta 2 Rocket 3.0 17:53:40 10° W 17:57:17 76° N 17:58:58 32° E
SKYMED 2 3.6 17:55:18 10° N 17:59:39 83° WNW 18:03:58 10° SSW
Cosmos 2056 Rocket 3.6 17:59:21 10° SSW 18:04:44 80° WNW 18:10:04 10° NNE
Cosmos 407 Rocket 3.9 18:01:14 10° N 18:06:01 38° ENE 18:10:48 10° SE
Okean 2 3.3 18:02:39 10° S 18:06:46 66° E 18:09:33 20° NNE
Intercosmos 25 3.9 18:04:59 10° NNW 18:08:05 51° W 18:11:54 10° S
NOSS 3-4 (A) 3.8 18:01:20 10° NNW 18:08:20 58° NE 18:15:43 10° SE
NOSS 3-4 (C) 3.9 18:01:26 10° NNW 18:08:26 58° NE 18:15:48 10° SE
Cosmos 1892 Rocket 3.4 18:06:08 10° S 18:10:25 66° E 18:13:09 22° NNE
Tiangong 1 3.3 18:11:14 10° NW 18:12:41 16° NNW 18:12:41 16° NNW
Cosmos 2369 Rocket 2.5 18:11:58 10° S 18:17:18 44° ESE 18:18:41 37° ENE
Cosmos 1727 Rocket 4.0 18:12:45 10° SSE 18:18:46 53° E 18:23:21 17° NNE
NOAA 12 4.0 18:15:06 10° SSE 18:20:17 61° ENE 18:25:28 10° N
Cosmos 1726 Rocket 3.4 18:15:51 10° N 18:20:18 69° E 18:24:44 10° SSE
Meteor 2-9 Rocket 4.0 18:16:10 10° N 18:21:34 88° ENE 18:26:52 10° S
Meteor 1-15 Rocket 4.2 18:17:25 10° N 18:23:16 72° E 18:29:00 10° SSE
Meteor 2-4 Rocket 4.3 18:20:47 10° SSW 18:26:00 53° W 18:31:14 10° N
Cosmos 1340 2.6 18:24:41 10° S 18:28:27 85° W 18:28:48 72° N
OAO 2 Rocket 4.3 18:27:50 10° SW 18:32:23 31° SSE 18:32:47 31° SE
Cosmos 1606 Rocket 4.2 18:35:28 10° NNW 18:39:51 56° W 18:44:12 10° S
Cosmos 1934 Rocket 4.5 18:37:37 10° NNW 18:43:46 61° W 18:49:58 10° S
Cosmos 1943 Rocket 3.7 18:40:37 10° SSE 18:42:42 21° SSE 18:42:42 21° SSE
METEOR-M 4.0 18:42:10 10° SSE 18:47:30 86° WSW 18:52:52 10° NNW
Cosmos 1452 Rocket 3.7 18:48:25 10° SSW 18:53:37 69° WNW 18:54:40 54° NNW
Cosmos 1339 Rocket 4.3 18:48:03 10° S 18:54:08 87° W 18:56:45 37° N
Gbstr 26 Del rocket 4.3 19:12:37 10° SW 19:20:47 84° NW 19:21:09 81° N
ATLAS 3B CENTAUR R/B 3.7 19:21:36 10° W 19:36:47 47° SSW 19:37:53 44° S
Cosmos 2369 Rocket 4.3 19:57:07 10° WSW 20:00:33 22° WNW 20:00:33 22° WNW
FALCON 9 R/B 4.1 20:10:06 10° W 20:18:20 37° W 20:18:20 37° W
